Regional Weather Roundup
Issued by NWS

Home | Current Version | Previous Version | Text Only | Print | Product List | Glossary Off
Versions: 1 2 3 4 5 6 7 8 9 10 11 12 13 14 15 16 17 18 19 20 21 22 23 24 25 26 27 28 29 30 31 32 33 34 35 36 37 38 39 40 41 42 43 44 45 46 47 48 49 50

000
ASUS43 KLOT 241208
RWRIL

ILLINOIS REGIONAL WEATHER ROUNDUP
NATIONAL WEATHER SERVICE CHICAGO/ROMEOVILLE IL
700 AM CDT SUN JUL 24 2016

NOTE: "FAIR" INDICATES FEW OR NO CLOUDS BELOW 12,000 FEET WITH NO
SIGNIFICANT WEATHER AND/OR OBSTRUCTIONS TO VISIBILITY.

* THESE STATIONS ARE NOT UNDER NWS QUALITY CONTROL. THEY ALSO MAY NOT
  REPORT WEATHER SUCH AS PRECIPITATION OR FOG.

ILZ001-002-007-009-015-016-024-241300-
NORTHWEST ILLINOIS

CITY           SKY/WX    TMP DP  RH WIND       PRES   REMARKS
MOLINE         SUNNY     81  75  82 S8        29.85S HX  87
6HR MIN TEMP:  79; 6HR MAX TEMP:  82;

STERLING*      SUNNY     78  76  93 CALM      29.88S HX  81
SAVANNA*       SUNNY     76  75  96 SE6       29.85S
$$

ILZ003-004-008-010-011-017-018-241300-
NORTH CENTRAL ILLINOIS

CITY           SKY/WX    TMP DP  RH WIND       PRES   REMARKS
ROCKFORD       MOSUNNY   76  70  82 S6        29.89R
FREEPORT*      SUNNY     76  74  93 S12       29.89R
ROCHELLE*      CLOUDY    73  73  98 S8        29.89F FOG
DE KALB*       CLOUDY    73  72  98 S9        29.91S FOG
$$

ILZ005-006-012>014-019>023-241300-
NORTHEAST ILLINOIS

CITY           SKY/WX    TMP DP  RH WIND       PRES   REMARKS
CHICAGO-OHARE  MOSUNNY   73  70  90 S12       29.91R
6HR MIN TEMP:  71; 6HR MAX TEMP:  73; 6HR PCP:  0.01;

CHICAGO-MIDWAY PTSUNNY   74  69  85 S8        29.91S
6HR MIN TEMP:  73; 6HR MAX TEMP:  74; 6HR PCP:  0.03;

AURORA         SUNNY     74  71  91 S10       29.91S
6HR MIN TEMP:  71; 6HR MAX TEMP:  74;

LANSING*       SUNNY     72  68  89 S8        29.94S
JOLIET*        SUNNY     74  72  94 SE7       29.92S
WAUKEGAN       CLOUDY    74  71  91 S13       29.89R
6HR MIN TEMP:  71; 6HR MAX TEMP:  74;

DUPAGE AIRPORT SUNNY     73  70  90 S10       29.91R
6HR MIN TEMP:  71; 6HR MAX TEMP:  73;

WHEELING       SUNNY     73  70  90 S13       29.91R
6HR MIN TEMP:  71; 6HR MAX TEMP:  73; 6HR PCP: TRACE;

MORRIS*        SUNNY     73  71  95 S5        29.91S
ROMEOVILLE*    SUNNY     72  68  89 S10       29.92S
NORTHERLY ISL    N/A     74  69  85 S7          N/A
$$

LMZ740>746-241300-
SOUTHERN LAKE MICHIGAN

STATION/POSITION SKY/WX   TEMP    WIND        PRES    VSBY  WAVE
                          AIR SEA DIR/SP/G                  HT/PER
                          (F)     (DEG/KT/KT) (MB)    (MI)  (FT/S)
SOUTHERN BUOY              74 72  170/ 17/ 19 1011.0R         2/ 4
WILMETTE HARBOR            69 65  190/  6/  8   N/A           1/ 2
HARRISON CRIB              72     180/ 13/ 14   N/A
BURNHAM HARBOR             73     180/  6/ 10   N/A
CALUMET HARBOR             72     170/  7/ 10 1012.5F
BURNS HARBOR               72     180/  7/ 11 1013.9S
MICHIGAN CITY              73     140/ 10/ 13   N/A
MICHIGAN CITY 6N           73 73  180/ 10/ 14   N/A           1
ST. JOSEPH                 74 74  160/ 10/ 12 1013.2R         1/ 2
$$

ILZ025>027-034>036-040-047-049-050-058-095>099-241300-
WEST-CENTRAL ILLINOIS

CITY           SKY/WX    TMP DP  RH WIND       PRES   REMARKS
QUINCY         MOSUNNY   79  75  87 S9        29.90R HX  83
GALESBURG*     MOSUNNY   78  75  91 S6        29.89S
MACOMB*        CLOUDY    78  76  94 S8        29.91S HX  80
JACKSONVILLE*  CLOUDY    78  75  91 S8        29.91S HX  80
PITTSFIELD*    CLOUDY    78  76  94 S5        29.92S HX  80
$$

ILZ028>032-037-038-041>044-048-051>054-059>061-241300-
CENTRAL ILLINOIS

CITY           SKY/WX    TMP DP  RH WIND       PRES   REMARKS
PONTIAC        SUNNY     76  76 100 SE6       29.94S FOG
BLOOMINGTON    MOSUNNY   77  75  93 S9        29.95S FOG
DECATUR        PTSUNNY   79  75  87 S8        29.95S HX  83
PEORIA         SUNNY     78  76  93 S7        29.90F HX  81
6HR MIN TEMP:  77; 6HR MAX TEMP:  81;

LACON*         SUNNY     78  74  88 S5        29.89F
LINCOLN*       CLOUDY    78  77  96 S7        29.92S FOG     HX  81
SPRINGFIELD    PTSUNNY   80  75  84 S9        29.93R HX  85
6HR MIN TEMP:  79; 6HR MAX TEMP:  83;

TAYLORVILLE    MOSUNNY   77  76  96 NW6       29.95R FOG
6HR MIN TEMP:  74; 6HR MAX TEMP:  78;

$$

ILZ033-039-045-046-055>057-062-063-241300-
EAST-CENTRAL ILLINOIS

CITY           SKY/WX    TMP DP  RH WIND       PRES   REMARKS
CHAMPAIGN      CLOUDY    76  74  93 SE6       29.97R FOG
MATTOON        CLOUDY    77  74  90 S6        29.96S FOG
PARIS*           N/A     74  74 100 CALM      29.98S FOG
$$

ILZ079-100>102-241300-
SOUTHWEST ILLINOIS

CITY           SKY/WX    TMP DP  RH WIND       PRES   REMARKS
ALTON          MOSUNNY   73  73 100 S3        29.95R
BELLEVILLE     SUNNY     75  75 100 CALM      29.94R FOG
CAHOKIA*       SUNNY     78  74  87 SE6       29.94R HX  81
SPARTA*        MOSUNNY   76  75  96 CALM      29.97R FOG
$$

ILZ064>066-069>071-074>076-080>082-084>086-088>090-092>094-241300-
SOUTH-CENTRAL ILLINOIS

CITY           SKY/WX    TMP DP  RH WIND       PRES   REMARKS
CARBONDALE     SUNNY     76  74  93 S3        29.96R FOG
6HR MIN TEMP:  74; 6HR MAX TEMP:  78;

CAIRO*         SUNNY     77  77  98 CALM      29.96R FOG
EFFINGHAM*       N/A     75  75 100 CALM      29.98S FOG
MARION         MOSUNNY   79  77  94 SE6       29.98R HX  83
MT. VERNON     SUNNY     75  72  88 CALM      29.98R
CENTRALIA*     SUNNY     77  77 100 CALM      29.96S FOG
SALEM*         SUNNY     77  75  94 CALM      29.97S FOG
METROPOLIS*    SUNNY     77  76  95 CALM      29.98R FOG
$$

ILZ067-068-072-073-078-083-087-091-241300-
SOUTHEAST ILLINOIS

CITY           SKY/WX    TMP DP  RH WIND       PRES   REMARKS
LAWRENCEVILLE  SUNNY     78  77  96 CALM      29.98R FOG     HX  81
FLORA*         FOG       76  76  98 CALM      29.98R VSB 1/2
FAIRFIELD*     SUNNY     76  76  99 CALM      29.97R FOG
HARRISBURG*    MOSUNNY   75  75  99 CALM      29.97R FOG
ROBINSON*      PTSUNNY   74  74 100 CALM      29.98S FOG
CARMI*         SUNNY     75  75 100 CALM      29.97R FOG
$$

ABBREVIATIONS USED IN REMARKS
   TC - TEMPERATURE IN CELSIUS
  WCI - WIND CHILL INDEX
   HX - HEAT INDEX
  VSB - VISIBILITY
$$





USA.gov is the U.S. government's official web portal to all federal, state and local government web resources and services.